TimeEDT,TemperatureF,Dew PointF,Humidity,Sea Level PressureIn,VisibilityMPH,Wind Direction,Wind SpeedMPH,Gust SpeedMPH,PrecipitationIn,Events,Conditions,WindDirDegrees,DateUTC
12:51 AM,32.0,16.0,52,30.07,10.0,WNW,5.8,-,N/A,,Overcast,290,2013-04-02 04:51:00
1:51 AM,32.0,15.1,50,30.07,10.0,West,8.1,-,N/A,,Scattered Clouds,280,2013-04-02 05:51:00
2:51 AM,30.9,14.0,50,30.07,10.0,WNW,11.5,-,N/A,,Overcast,300,2013-04-02 06:51:00
3:51 AM,28.9,14.0,54,30.07,10.0,Variable,5.8,-,N/A,,Scattered Clouds,0,2013-04-02 07:51:00
4:51 AM,28.9,12.0,49,30.08,10.0,West,10.4,-,N/A,,Clear,280,2013-04-02 08:51:00
5:51 AM,27.0,10.9,51,30.11,10.0,WNW,8.1,-,N/A,,Clear,300,2013-04-02 09:51:00
6:51 AM,27.0,12.0,53,30.14,10.0,West,5.8,-,N/A,,Scattered Clouds,260,2013-04-02 10:51:00
7:51 AM,27.0,12.9,56,30.17,10.0,West,11.5,-,N/A,,Overcast,280,2013-04-02 11:51:00
8:51 AM,28.0,12.0,51,30.19,10.0,West,6.9,-,N/A,,Mostly Cloudy,260,2013-04-02 12:51:00
9:51 AM,30.0,10.9,45,30.19,10.0,West,9.2,21.9,N/A,,Clear,260,2013-04-02 13:51:00
10:51 AM,32.0,10.9,42,30.20,10.0,West,13.8,21.9,N/A,,Clear,260,2013-04-02 14:51:00
11:51 AM,33.1,10.9,40,30.21,10.0,NW,10.4,21.9,N/A,,Clear,310,2013-04-02 15:51:00
12:51 PM,35.1,10.9,37,30.20,10.0,WSW,12.7,24.2,N/A,,Clear,250,2013-04-02 16:51:00
1:51 PM,37.0,10.9,34,30.18,10.0,NW,15.0,23.0,N/A,,Clear,320,2013-04-02 17:51:00
2:51 PM,39.0,10.9,32,30.16,10.0,WNW,12.7,19.6,N/A,,Clear,290,2013-04-02 18:51:00
3:51 PM,39.0,10.0,30,30.15,10.0,WNW,13.8,20.7,N/A,,Clear,300,2013-04-02 19:51:00
4:51 PM,41.0,9.0,27,30.14,10.0,NW,12.7,-,N/A,,Clear,310,2013-04-02 20:51:00
5:51 PM,39.9,9.0,28,30.16,10.0,West,8.1,-,N/A,,Clear,270,2013-04-02 21:51:00
6:51 PM,37.9,9.0,30,30.17,10.0,West,10.4,-,N/A,,Clear,280,2013-04-02 22:51:00
7:51 PM,36.0,9.0,33,30.19,10.0,West,11.5,-,N/A,,Clear,280,2013-04-02 23:51:00
8:51 PM,34.0,10.0,37,30.20,10.0,West,3.5,-,N/A,,Clear,280,2013-04-03 00:51:00
9:51 PM,30.0,12.0,47,30.22,10.0,Calm,Calm,-,N/A,,Clear,0,2013-04-03 01:51:00
10:51 PM,27.0,18.0,69,30.23,10.0,Calm,Calm,-,N/A,,Clear,0,2013-04-03 02:51:00
11:51 PM,24.1,17.1,75,30.24,10.0,Calm,Calm,-,N/A,,Partly Cloudy,0,2013-04-03 03:51:00